sat.trackr.live / text

‹ back to catalog

STARLINK-6131

NORAD 57107 · 2023-090G

PAYLOAD ACTIVE UNKNOWN

§ Identity

Operator
Country
US
Launch date
2023-06-23
Launch site
AFETR
Launch vehicle
Mass (kg)
RCS (m²)

Purposes: comms

External: N2YO · Heavens-Above · Gunter

§ Orbital elements

Epoch: 2026-05-24T06:19:45.612768Z

Period
94.27 min
Inclination
43.0030°
Eccentricity
0.0001808
Mean motion
15.27577607 rev/d
Perigee alt
481.8 km
Apogee alt
484.3 km
Semi-major
6,861.2 km
B*
2.9650e-5
RAAN
214.4795°
Arg perigee
274.8852°
Mean anomaly
85.1793°
Rev number
16,189

§ Raw data

STARLINK-61311 57107U 23090G   26144.26372237  .00000554  00000+0  29650-4 0  99922 57107  43.0030 214.4795 0001808 274.8852  85.1793 15.27577607161892

JSON: /api/v1/satellites/57107 · /tle

For live sub-satellite position, see the globe view (requires WebGL).

§ Visibility from observer

Set your observer location to see the next 7 days of passes ≥ 10°. The values pass through the URL so the page stays shareable.

No JS? Fill the form by hand. The geolocation button needs JavaScript.